TimeCST,TemperatureF,Dew PointF,Humidity,Sea Level PressureIn,VisibilityMPH,Wind Direction,Wind SpeedMPH,Gust SpeedMPH,PrecipitationIn,Events,Conditions,WindDirDegrees,DateUTC
12:53 AM,19.9,15.1,81,30.28,9.0,West,12.7,-,N/A,,Clear,260,2013-01-04 06:53:00
1:53 AM,19.0,14.0,81,30.27,10.0,West,10.4,-,N/A,,Clear,260,2013-01-04 07:53:00
2:53 AM,18.0,14.0,84,30.27,9.0,SW,9.2,-,N/A,,Clear,220,2013-01-04 08:53:00
3:53 AM,16.0,12.9,88,30.27,8.0,WSW,10.4,-,N/A,,Clear,240,2013-01-04 09:53:00
4:53 AM,16.0,10.9,81,30.27,10.0,WSW,10.4,-,N/A,,Clear,250,2013-01-04 10:53:00
5:53 AM,15.1,10.9,84,30.27,9.0,SW,11.5,-,N/A,,Clear,230,2013-01-04 11:53:00
7:53 AM,12.9,9.0,84,30.27,9.0,WSW,12.7,-,N/A,,Clear,240,2013-01-04 13:53:00
8:53 AM,16.0,10.0,77,30.28,10.0,WSW,13.8,-,N/A,,Clear,240,2013-01-04 14:53:00
9:53 AM,19.0,12.9,77,30.29,10.0,SSW,12.7,-,N/A,,Clear,210,2013-01-04 15:53:00
10:53 AM,23.0,16.0,74,30.27,10.0,WSW,16.1,-,N/A,,Clear,240,2013-01-04 16:53:00
11:53 AM,28.0,18.0,66,30.24,10.0,SW,19.6,23.0,N/A,,Clear,230,2013-01-04 17:53:00
12:53 PM,30.0,19.9,66,30.21,10.0,SW,18.4,27.6,N/A,,Clear,220,2013-01-04 18:53:00
1:53 PM,30.9,21.9,69,30.20,10.0,SW,15.0,25.3,N/A,,Clear,230,2013-01-04 19:53:00
2:53 PM,30.0,21.9,72,30.21,10.0,SW,20.7,26.5,N/A,,Clear,230,2013-01-04 20:53:00
3:53 PM,30.0,21.9,72,30.22,10.0,SW,18.4,25.3,N/A,,Clear,230,2013-01-04 21:53:00
5:53 PM,28.0,21.9,78,30.24,10.0,SW,16.1,23.0,N/A,,Clear,230,2013-01-04 23:53:00
6:53 PM,27.0,21.0,78,30.26,10.0,WSW,11.5,-,N/A,,Clear,240,2013-01-05 00:53:00
7:53 PM,27.0,21.0,78,30.27,10.0,SW,10.4,-,N/A,,Clear,230,2013-01-05 01:53:00
8:53 PM,25.0,21.0,85,30.27,10.0,SW,8.1,-,N/A,,Clear,220,2013-01-05 02:53:00
9:53 PM,25.0,19.9,81,30.28,10.0,SW,9.2,-,N/A,,Clear,230,2013-01-05 03:53:00
10:53 PM,25.0,19.9,81,30.28,10.0,SW,8.1,-,N/A,,Clear,220,2013-01-05 04:53:00
11:53 PM,24.1,19.0,81,30.28,10.0,SW,4.6,-,N/A,,Clear,220,2013-01-05 05:53:00